CDT,Max TemperatureF,Mean TemperatureF,Min TemperatureF,Max Dew PointF,MeanDew PointF,Min DewpointF,Max Humidity, Mean Humidity, Min Humidity, Max Sea Level PressureIn, Mean Sea Level PressureIn, Min Sea Level PressureIn, Max VisibilityMiles, Mean VisibilityMiles, Min VisibilityMiles, Max Wind SpeedMPH, Mean Wind SpeedMPH, Max Gust SpeedMPH,PrecipitationIn, CloudCover, Events, WindDirDegrees
2013-10-1,81,74,68,71,68,64,94,84,69,30.05,30.01,29.95,10,4,0,7,3,,0.00,7,Fog,136
2013-10-2,81,74,68,72,68,64,94,87,66,30.08,30.04,29.99,10,5,0,12,2,,0.11,6,Fog-Rain-Thunderstorm,196
2013-10-3,84,74,64,73,69,63,94,83,62,30.01,29.97,29.92,10,6,0,14,3,24,0.95,5,Fog-Rain-Thunderstorm,181
2013-10-4,86,76,69,73,70,66,94,82,63,30.02,29.98,29.93,10,7,1,14,4,26,0.20,5,Rain,171
2013-10-5,82,72,60,72,69,52,94,86,69,29.98,29.91,29.86,10,8,1,16,6,26,1.13,7,Rain-Thunderstorm,204
2013-10-6,70,60,51,52,48,43,90,67,40,29.98,29.92,29.86,10,10,10,17,8,29,0.01,3,Rain,269
2013-10-7,72,60,50,53,47,45,89,68,44,30.15,30.06,29.95,10,10,8,14,4,20,0.00,1,,328
2013-10-8,73,60,46,52,47,44,90,69,37,30.21,30.15,30.10,10,10,6,10,4,21,0.00,0,,48
2013-10-9,79,63,48,61,53,45,90,74,46,30.17,30.11,30.07,10,10,10,6,2,,0.00,1,,31
2013-10-10,78,68,57,63,59,54,94,87,50,30.16,30.10,30.01,10,4,0,6,0,,0.00,5,Fog,141
2013-10-11,81,66,51,61,56,50,94,80,45,30.06,30.00,29.93,10,6,0,13,1,,0.00,2,Fog,198
2013-10-12,75,65,57,65,61,55,94,88,73,30.16,30.07,29.97,10,4,0,7,1,,0.34,5,Fog-Rain-Thunderstorm,338
2013-10-13,77,66,52,57,49,44,94,65,33,30.33,30.25,30.17,10,8,0,13,4,18,0.00,0,Fog,7
2013-10-14,73,62,52,59,51,43,81,67,52,30.27,30.18,30.06,10,9,7,8,5,,0.00,0,,35
2013-10-15,69,66,64,66,64,59,94,89,78,30.03,29.96,29.91,10,4,0,10,3,,0.80,8,Fog-Rain,176
2013-10-16,70,62,54,61,50,46,89,74,44,30.06,30.00,29.95,10,10,6,14,7,,0.00,6,Rain,334
2013-10-17,68,57,48,50,48,45,93,78,48,30.04,30.00,29.96,10,8,2,8,4,,0.06,4,Rain,312
2013-10-18,72,57,43,54,46,41,93,73,38,30.07,30.01,29.94,10,8,2,7,1,,0.05,1,Rain,256
2013-10-19,63,54,44,48,41,34,89,73,38,30.07,30.03,29.94,10,10,5,12,6,17,0.12,4,Rain,311
2013-10-20,68,52,39,44,41,37,89,70,39,30.07,30.02,29.96,10,10,8,14,4,22,0.00,0,,196
2013-10-21,68,55,42,52,46,39,90,77,51,30.07,30.02,29.98,10,10,7,8,3,,0.01,5,Rain,284
2013-10-22,64,50,37,44,39,35,93,68,40,30.09,30.01,29.88,10,9,2,12,3,21,0.00,1,,213
2013-10-23,60,48,39,45,37,32,83,64,37,30.17,30.10,29.96,10,10,10,13,6,18,0.00,4,,310
2013-10-24,57,47,37,40,33,24,79,60,29,30.43,30.26,30.13,10,10,10,16,6,29,0.00,4,,348
2013-10-25,55,42,30,33,29,23,86,65,31,30.56,30.45,30.30,10,10,8,8,3,,0.00,0,,62
2013-10-26,64,50,35,47,39,32,89,69,48,30.28,30.16,30.06,10,10,5,13,3,22,0.00,4,,223
2013-10-27,66,52,39,48,40,32,82,62,32,30.13,30.07,30.03,10,8,2,8,4,,0.00,4,,21
2013-10-28,71,56,41,50,45,38,90,74,44,30.24,30.17,30.06,10,8,4,5,1,,0.00,0,,173
2013-10-29,62,54,46,59,55,43,94,89,82,30.24,30.15,30.08,6,3,1,8,3,,0.31,8,Rain,70
2013-10-30,75,68,62,65,63,59,90,79,64,30.11,30.03,29.91,10,9,3,20,7,28,0.03,6,Rain,188
2013-10-31,72,64,55,66,62,51,94,87,77,29.91,29.67,29.44,10,6,1,22,11,41,1.58,7,Rain-Thunderstorm,200